Year,Month,Day,Hour,Minute,Value (Times are PST for temperature in C)
2019,02,11,00,00,-5.70
2019,02,11,00,01,-5.70
2019,02,11,00,02,-5.80
2019,02,11,00,03,-5.80
2019,02,11,00,04,-5.80
2019,02,11,00,05,-5.80
2019,02,11,00,06,-5.80
2019,02,11,00,07,-5.80
2019,02,11,00,08,-5.80
2019,02,11,00,09,-5.80
2019,02,11,00,10,-5.80
2019,02,11,00,11,-5.90
2019,02,11,00,12,-5.90
2019,02,11,00,13,-5.90
2019,02,11,00,14,-6.00
2019,02,11,00,15,-6.00
2019,02,11,00,16,-6.00
2019,02,11,00,17,-6.10
2019,02,11,00,18,-6.10
2019,02,11,00,19,-6.10
2019,02,11,00,20,-6.10
2019,02,11,00,21,-6.20
2019,02,11,00,22,-6.20
2019,02,11,00,23,-6.20
2019,02,11,00,24,-6.30
2019,02,11,00,25,-6.30
2019,02,11,00,26,-6.30
2019,02,11,00,27,-6.30
2019,02,11,00,28,-6.30
2019,02,11,00,29,-6.30
2019,02,11,00,30,-6.30
2019,02,11,00,31,-6.30
2019,02,11,00,32,-6.30
2019,02,11,00,33,-6.30
2019,02,11,00,34,-6.40
2019,02,11,00,35,-6.40
2019,02,11,00,36,-6.40
2019,02,11,00,37,-6.40
2019,02,11,00,38,-6.40
2019,02,11,00,39,-6.40
2019,02,11,00,40,-6.40
2019,02,11,00,41,-6.50
2019,02,11,00,42,-6.50
2019,02,11,00,43,-6.50
2019,02,11,00,44,-6.60
2019,02,11,00,45,-6.60
2019,02,11,00,46,-6.60
2019,02,11,00,47,-6.60
2019,02,11,00,48,-6.60
2019,02,11,00,49,-6.50
2019,02,11,00,50,-6.50
2019,02,11,00,51,-6.60
2019,02,11,00,52,-6.60
2019,02,11,00,53,-6.60
2019,02,11,00,54,-6.60
2019,02,11,00,55,-6.60
2019,02,11,00,56,-6.60
2019,02,11,00,57,-6.70
2019,02,11,00,58,-6.70
2019,02,11,00,59,-6.70
2019,02,11,01,00,-6.70
2019,02,11,01,01,-6.70
2019,02,11,01,02,-6.70
2019,02,11,01,03,-6.70
2019,02,11,01,04,-6.70
2019,02,11,01,05,-6.80
2019,02,11,01,06,-6.80
2019,02,11,01,07,-6.80
2019,02,11,01,08,-6.80
2019,02,11,01,09,-6.80
2019,02,11,01,10,-6.90
2019,02,11,01,11,-6.90
2019,02,11,01,12,-6.90
2019,02,11,01,13,-6.90
2019,02,11,01,14,-6.80
2019,02,11,01,15,-6.80
2019,02,11,01,16,-6.80
2019,02,11,01,17,-6.80
2019,02,11,01,18,-6.80
2019,02,11,01,19,-6.80
2019,02,11,01,20,-6.80
2019,02,11,01,21,-6.80
2019,02,11,01,22,-6.80
2019,02,11,01,23,-6.80
2019,02,11,01,24,-6.80
2019,02,11,01,25,-6.80
2019,02,11,01,26,-6.70
2019,02,11,01,27,-6.70
2019,02,11,01,28,-6.70
2019,02,11,01,29,-6.70
2019,02,11,01,30,-6.70
2019,02,11,01,31,-6.70
2019,02,11,01,32,-6.80
2019,02,11,01,33,-6.80
2019,02,11,01,34,-6.70
2019,02,11,01,35,-6.70
2019,02,11,01,36,-6.70
2019,02,11,01,37,-6.70
2019,02,11,01,38,-6.70
2019,02,11,01,39,-6.70
2019,02,11,01,40,-6.70
2019,02,11,01,41,-6.80
2019,02,11,01,42,-6.80
2019,02,11,01,43,-6.80
2019,02,11,01,44,-6.80
2019,02,11,01,45,-6.80
2019,02,11,01,46,-6.80
2019,02,11,01,47,-6.90
2019,02,11,01,48,-6.90
2019,02,11,01,49,-6.90
2019,02,11,01,50,-6.90
2019,02,11,01,51,-6.90
2019,02,11,01,52,-7.00
2019,02,11,01,53,-7.00
2019,02,11,01,54,-7.00
2019,02,11,01,55,-7.00
2019,02,11,01,56,-7.00
2019,02,11,01,57,-7.10
2019,02,11,01,58,-7.10
2019,02,11,01,59,-7.10
2019,02,11,02,00,-7.10
2019,02,11,02,01,-7.10
2019,02,11,02,02,-7.20
2019,02,11,02,03,-7.20
2019,02,11,02,04,-7.20
2019,02,11,02,05,-7.30
2019,02,11,02,06,-7.40
2019,02,11,02,07,-7.50
2019,02,11,02,08,-7.70
2019,02,11,02,09,-7.80
2019,02,11,02,10,-7.90
2019,02,11,02,11,-7.90
2019,02,11,02,12,-7.90
2019,02,11,02,13,-7.90
2019,02,11,02,14,-7.90
2019,02,11,02,15,-7.90
2019,02,11,02,16,-7.90
2019,02,11,02,17,-7.90
2019,02,11,02,18,-7.90
2019,02,11,02,19,-7.90
2019,02,11,02,20,-7.90
2019,02,11,02,21,-7.90
2019,02,11,02,22,-7.90
2019,02,11,02,23,-7.90
2019,02,11,02,24,-7.90
2019,02,11,02,25,-8.00
2019,02,11,02,26,-8.00
2019,02,11,02,27,-8.00
2019,02,11,02,28,-8.00
2019,02,11,02,29,-8.00
2019,02,11,02,30,-8.00
2019,02,11,02,31,-8.00
2019,02,11,02,32,-8.00
2019,02,11,02,33,-8.00
2019,02,11,02,34,-7.90
2019,02,11,02,35,-7.90
2019,02,11,02,36,-7.90
2019,02,11,02,37,-7.90
2019,02,11,02,38,-7.90
2019,02,11,02,39,-8.00
2019,02,11,02,40,-8.00
2019,02,11,02,41,-8.00
2019,02,11,02,42,-8.00
2019,02,11,02,43,-8.00
2019,02,11,02,44,-7.90
2019,02,11,02,45,-7.80
2019,02,11,02,46,-7.80
2019,02,11,02,47,-7.80
2019,02,11,02,48,-7.70
2019,02,11,02,49,-7.70
2019,02,11,02,50,-7.70
2019,02,11,02,51,-7.70
2019,02,11,02,52,-7.70
2019,02,11,02,53,-7.70
2019,02,11,02,54,-7.70
2019,02,11,02,55,-7.80
2019,02,11,02,56,-7.80
2019,02,11,02,57,-7.80
2019,02,11,02,58,-7.80
2019,02,11,02,59,-7.80
2019,02,11,03,00,-7.80
2019,02,11,03,01,-7.80
2019,02,11,03,02,-7.70
2019,02,11,03,03,-7.70
2019,02,11,03,04,-7.70
2019,02,11,03,05,-7.70
2019,02,11,03,06,-7.70
2019,02,11,03,07,-7.70
2019,02,11,03,08,-7.70
2019,02,11,03,09,-7.70
2019,02,11,03,10,-7.70
2019,02,11,03,11,-7.70
2019,02,11,03,12,-7.60
2019,02,11,03,13,-7.60
2019,02,11,03,14,-7.60
2019,02,11,03,15,-7.50
2019,02,11,03,16,-7.50
2019,02,11,03,17,-7.40
2019,02,11,03,18,-7.40
2019,02,11,03,19,-7.40
2019,02,11,03,20,-7.40
2019,02,11,03,21,-7.40
2019,02,11,03,22,-7.40
2019,02,11,03,23,-7.40
2019,02,11,03,24,-7.40
2019,02,11,03,25,-7.40
2019,02,11,03,26,-7.30
2019,02,11,03,27,-7.30
2019,02,11,03,28,-7.30
2019,02,11,03,29,-7.30
2019,02,11,03,30,-7.30
2019,02,11,03,31,-7.30
2019,02,11,03,32,-7.30
2019,02,11,03,33,-7.30
2019,02,11,03,34,-7.40
2019,02,11,03,35,-7.40
2019,02,11,03,36,-7.40
2019,02,11,03,37,-7.40
2019,02,11,03,38,-7.50
2019,02,11,03,39,-7.50
2019,02,11,03,40,-7.60
2019,02,11,03,41,-7.60
2019,02,11,03,42,-7.60
2019,02,11,03,43,-7.70
2019,02,11,03,44,-7.80
2019,02,11,03,45,-7.80
2019,02,11,03,46,-7.80
2019,02,11,03,47,-7.90
2019,02,11,03,48,-7.90
2019,02,11,03,49,-8.00
2019,02,11,03,50,-8.00
2019,02,11,03,51,-8.10
2019,02,11,03,52,-8.10
2019,02,11,03,53,-8.20
2019,02,11,03,54,-8.20
2019,02,11,03,55,-8.20
2019,02,11,03,56,-8.20
2019,02,11,03,57,-8.20
2019,02,11,03,58,-8.10
2019,02,11,03,59,-8.20
2019,02,11,04,00,-8.20
2019,02,11,04,01,-8.20
2019,02,11,04,02,-8.30
2019,02,11,04,03,-8.30
2019,02,11,04,04,-8.30
2019,02,11,04,05,-8.40
2019,02,11,04,06,-8.40
2019,02,11,04,07,-8.50
2019,02,11,04,08,-8.50
2019,02,11,04,09,-8.60
2019,02,11,04,10,-8.60
2019,02,11,04,11,-8.70
2019,02,11,04,12,-8.70
2019,02,11,04,13,-8.70
2019,02,11,04,14,-8.70
2019,02,11,04,15,-8.70
2019,02,11,04,16,-8.70
2019,02,11,04,17,-8.70
2019,02,11,04,18,-8.70
2019,02,11,04,19,-8.70
2019,02,11,04,20,-8.70
2019,02,11,04,21,-8.80
2019,02,11,04,22,-8.80
2019,02,11,04,23,-8.80
2019,02,11,04,24,-8.80
2019,02,11,04,25,-8.80
2019,02,11,04,26,-8.70
2019,02,11,04,27,-8.70
2019,02,11,04,28,-8.60
2019,02,11,04,29,-8.50
2019,02,11,04,30,-8.40
2019,02,11,04,31,-8.40
2019,02,11,04,32,-8.40
2019,02,11,04,33,-8.40
2019,02,11,04,34,-8.40
2019,02,11,04,35,-8.40
2019,02,11,04,36,-8.40
2019,02,11,04,37,-8.50
2019,02,11,04,38,-8.50
2019,02,11,04,39,-8.60
2019,02,11,04,40,-8.60
2019,02,11,04,41,-8.70
2019,02,11,04,42,-8.70
2019,02,11,04,43,-8.70
2019,02,11,04,44,-8.70
2019,02,11,04,45,-8.60
2019,02,11,04,46,-8.60
2019,02,11,04,47,-8.50
2019,02,11,04,48,-8.40
2019,02,11,04,49,-8.40
2019,02,11,04,50,-8.40
2019,02,11,04,51,-8.40
2019,02,11,04,52,-8.40
2019,02,11,04,53,-8.40
2019,02,11,04,54,-8.50
2019,02,11,04,55,-8.50
2019,02,11,04,56,-8.50
2019,02,11,04,57,-8.60
2019,02,11,04,58,-8.60
2019,02,11,04,59,-8.60
2019,02,11,05,00,-8.60
2019,02,11,05,01,-8.60
2019,02,11,05,02,-8.50
2019,02,11,05,03,-8.50
2019,02,11,05,04,-8.40
2019,02,11,05,05,-8.30
2019,02,11,05,06,-8.30
2019,02,11,05,07,-8.30
2019,02,11,05,08,-8.30
2019,02,11,05,09,-8.20
2019,02,11,05,10,-8.20
2019,02,11,05,11,-8.10
2019,02,11,05,12,-8.00
2019,02,11,05,13,-7.90
2019,02,11,05,14,-7.80
2019,02,11,05,15,-7.70
2019,02,11,05,16,-7.60
2019,02,11,05,17,-7.60
2019,02,11,05,18,-7.50
2019,02,11,05,19,-7.50
2019,02,11,05,20,-7.40
2019,02,11,05,21,-7.30
2019,02,11,05,22,-7.30
2019,02,11,05,23,-7.30
2019,02,11,05,24,-7.20
2019,02,11,05,25,-7.20
2019,02,11,05,26,-7.20
2019,02,11,05,27,-7.20
2019,02,11,05,28,-7.20
2019,02,11,05,29,-7.20
2019,02,11,05,30,-7.10
2019,02,11,05,31,-7.10
2019,02,11,05,32,-7.10
2019,02,11,05,33,-7.10
2019,02,11,05,34,-7.10
2019,02,11,05,35,-7.00
2019,02,11,05,36,-7.00
2019,02,11,05,37,-7.00
2019,02,11,05,38,-7.00
2019,02,11,05,39,-7.00
2019,02,11,05,40,-7.00
2019,02,11,05,41,-7.00
2019,02,11,05,42,-6.90
2019,02,11,05,43,-6.90
2019,02,11,05,44,-6.90
2019,02,11,05,45,-6.90
2019,02,11,05,46,-6.90
2019,02,11,05,47,-6.90
2019,02,11,05,48,-6.80
2019,02,11,05,49,-6.80
2019,02,11,05,50,-6.80
2019,02,11,05,51,-6.80
2019,02,11,05,52,-6.80
2019,02,11,05,53,-6.80
2019,02,11,05,54,-6.70
2019,02,11,05,55,-6.70
2019,02,11,05,56,-6.70
2019,02,11,05,57,-6.70
2019,02,11,05,58,-6.70
2019,02,11,05,59,-6.60
2019,02,11,06,00,-6.60
2019,02,11,06,01,-6.60
2019,02,11,06,02,-6.60
2019,02,11,06,03,-6.60
2019,02,11,06,04,-6.60
2019,02,11,06,05,-6.50
2019,02,11,06,06,-6.50
2019,02,11,06,07,-6.50
2019,02,11,06,08,-6.50
2019,02,11,06,09,-6.50
2019,02,11,06,10,-6.50
2019,02,11,06,11,-6.40
2019,02,11,06,12,-6.40
2019,02,11,06,13,-6.40
2019,02,11,06,14,-6.40
2019,02,11,06,15,-6.40
2019,02,11,06,16,-6.40
2019,02,11,06,17,-6.40
2019,02,11,06,18,-6.40
2019,02,11,06,19,-6.40
2019,02,11,06,20,-6.50
2019,02,11,06,21,-6.50
2019,02,11,06,22,-6.50
2019,02,11,06,23,-6.50
2019,02,11,06,24,-6.50
2019,02,11,06,25,-6.50
2019,02,11,06,26,-6.60
2019,02,11,06,27,-6.60
2019,02,11,06,28,-6.60
2019,02,11,06,29,-6.60
2019,02,11,06,30,-6.60
2019,02,11,06,31,-6.60
2019,02,11,06,32,-6.60
2019,02,11,06,33,-6.60
2019,02,11,06,34,-6.60
2019,02,11,06,35,-6.60
2019,02,11,06,36,-6.60
2019,02,11,06,37,-6.60
2019,02,11,06,38,-6.60
2019,02,11,06,39,-6.50
2019,02,11,06,40,-6.50
2019,02,11,06,41,-6.50
2019,02,11,06,42,-6.50
2019,02,11,06,43,-6.50
2019,02,11,06,44,-6.50
2019,02,11,06,45,-6.50
2019,02,11,06,46,-6.50
2019,02,11,06,47,-6.50
2019,02,11,06,48,-6.40
2019,02,11,06,49,-6.40
2019,02,11,06,50,-6.40
2019,02,11,06,51,-6.50
2019,02,11,06,52,-6.50
2019,02,11,06,53,-6.50
2019,02,11,06,54,-6.50
2019,02,11,06,55,-6.50
2019,02,11,06,56,-6.50
2019,02,11,06,57,-6.40
2019,02,11,06,58,-6.40
2019,02,11,06,59,-6.40
2019,02,11,07,00,-6.40
2019,02,11,07,01,-6.40
2019,02,11,07,02,-6.40
2019,02,11,07,03,-6.40
2019,02,11,07,04,-6.40
2019,02,11,07,05,-6.50
2019,02,11,07,06,-6.50
2019,02,11,07,07,-6.50
2019,02,11,07,08,-6.60
2019,02,11,07,09,-6.60
2019,02,11,07,10,-6.60
2019,02,11,07,11,-6.60
2019,02,11,07,12,-6.60
2019,02,11,07,13,-6.60
2019,02,11,07,14,-6.60
2019,02,11,07,15,-6.60
2019,02,11,07,16,-6.60
2019,02,11,07,17,-6.60
2019,02,11,07,18,-6.60
2019,02,11,07,19,-6.70
2019,02,11,07,20,-6.70
2019,02,11,07,21,-6.70
2019,02,11,07,22,-6.70
2019,02,11,07,23,-6.70
2019,02,11,07,24,-6.70
2019,02,11,07,25,-6.70
2019,02,11,07,26,-6.60
2019,02,11,07,27,-6.60
2019,02,11,07,28,-6.60
2019,02,11,07,29,-6.60
2019,02,11,07,30,-6.50
2019,02,11,07,31,-6.50
2019,02,11,07,32,-6.40
2019,02,11,07,33,-6.40
2019,02,11,07,34,-6.40
2019,02,11,07,35,-6.40
2019,02,11,07,36,-6.40
2019,02,11,07,37,-6.30
2019,02,11,07,38,-6.30
2019,02,11,07,39,-6.30
2019,02,11,07,40,-6.30
2019,02,11,07,41,-6.20
2019,02,11,07,42,-6.20
2019,02,11,07,43,-6.20
2019,02,11,07,44,-6.20
2019,02,11,07,45,-6.20
2019,02,11,07,46,-6.20
2019,02,11,07,47,-6.20
2019,02,11,07,48,-6.10
2019,02,11,07,49,-6.10
2019,02,11,07,50,-6.10
2019,02,11,07,51,-6.10
2019,02,11,07,52,-6.00
2019,02,11,07,53,-6.00
2019,02,11,07,54,-6.00
2019,02,11,07,55,-6.00
2019,02,11,07,56,-6.00
2019,02,11,07,57,-5.90
2019,02,11,07,58,-5.90
2019,02,11,07,59,-5.90
2019,02,11,08,00,-5.90
2019,02,11,08,01,-5.80
2019,02,11,08,02,-5.80
2019,02,11,08,03,-5.80
2019,02,11,08,04,-5.80
2019,02,11,08,05,-5.80
2019,02,11,08,06,-5.80
2019,02,11,08,07,-5.80
2019,02,11,08,08,-5.70
2019,02,11,08,09,-5.70
2019,02,11,08,10,-5.70
2019,02,11,08,11,-5.70
2019,02,11,08,12,-5.70
2019,02,11,08,13,-5.70
2019,02,11,08,14,-5.70
2019,02,11,08,15,-5.70
2019,02,11,08,16,-5.70
2019,02,11,08,17,-5.70
2019,02,11,08,18,-5.60
2019,02,11,08,19,-5.60
2019,02,11,08,20,-5.60
2019,02,11,08,21,-5.60
2019,02,11,08,22,-5.60
2019,02,11,08,23,-5.60
2019,02,11,08,24,-5.60
2019,02,11,08,25,-5.60
2019,02,11,08,26,-5.60
2019,02,11,08,27,-5.60
2019,02,11,08,28,-5.60
2019,02,11,08,29,-5.60
2019,02,11,08,30,-5.60
2019,02,11,08,31,-5.60
2019,02,11,08,32,-5.60
2019,02,11,08,33,-5.60
2019,02,11,08,34,-5.50
2019,02,11,08,35,-5.50
2019,02,11,08,36,-5.50
2019,02,11,08,37,-5.50
2019,02,11,08,38,-5.50
2019,02,11,08,39,-5.50
2019,02,11,08,40,-5.40
2019,02,11,08,41,-5.40
2019,02,11,08,42,-5.40
2019,02,11,08,43,-5.40
2019,02,11,08,44,-5.40
2019,02,11,08,45,-5.40
2019,02,11,08,46,-5.40
2019,02,11,08,47,-5.40
2019,02,11,08,48,-5.40
2019,02,11,08,49,-5.40
2019,02,11,08,50,-5.40
2019,02,11,08,51,-5.40
2019,02,11,08,52,-5.40
2019,02,11,08,53,-5.40
2019,02,11,08,54,-5.30
2019,02,11,08,55,-5.30
2019,02,11,08,56,-5.30
2019,02,11,08,57,-5.30
2019,02,11,08,58,-5.30
2019,02,11,08,59,-5.30
2019,02,11,09,00,-5.30
2019,02,11,09,01,-5.30
2019,02,11,09,02,-5.30
2019,02,11,09,03,-5.30
2019,02,11,09,04,-5.20
2019,02,11,09,05,-5.20
2019,02,11,09,06,-5.20
2019,02,11,09,07,-5.20
2019,02,11,09,08,-5.20
2019,02,11,09,09,-5.20
2019,02,11,09,10,-5.20
2019,02,11,09,11,-5.20
2019,02,11,09,12,-5.10
2019,02,11,09,13,-5.10
2019,02,11,09,14,-5.10
2019,02,11,09,15,-5.10
2019,02,11,09,16,-5.10
2019,02,11,09,17,-5.10
2019,02,11,09,18,-5.00
2019,02,11,09,19,-5.00
2019,02,11,09,20,-5.00
2019,02,11,09,21,-5.00
2019,02,11,09,22,-4.90
2019,02,11,09,23,-4.90
2019,02,11,09,24,-4.90
2019,02,11,09,25,-4.90
2019,02,11,09,26,-4.90
2019,02,11,09,27,-4.90
2019,02,11,09,28,-4.90
2019,02,11,09,29,-4.90
2019,02,11,09,30,-4.90
2019,02,11,09,31,-4.80
2019,02,11,09,32,-4.80
2019,02,11,09,33,-4.80
2019,02,11,09,34,-4.80
2019,02,11,09,35,-4.80
2019,02,11,09,36,-4.80
2019,02,11,09,37,-4.80
2019,02,11,09,38,-4.80
2019,02,11,09,39,-4.70
2019,02,11,09,40,-4.70
2019,02,11,09,41,-4.70
2019,02,11,09,42,-4.60
2019,02,11,09,43,-4.60
2019,02,11,09,44,-4.50
2019,02,11,09,45,-4.50
2019,02,11,09,46,-4.50
2019,02,11,09,47,-4.50
2019,02,11,09,48,-4.50
2019,02,11,09,49,-4.50
2019,02,11,09,50,-4.40
2019,02,11,09,51,-4.40
2019,02,11,09,52,-4.40
2019,02,11,09,53,-4.40
2019,02,11,09,54,-4.40
2019,02,11,09,55,-4.30
2019,02,11,09,56,-4.30
2019,02,11,09,57,-4.30
2019,02,11,09,58,-4.30
2019,02,11,09,59,-4.20
2019,02,11,10,00,-4.20
2019,02,11,10,01,-4.20
2019,02,11,10,02,-4.20
2019,02,11,10,03,-4.10
2019,02,11,10,04,-4.10
2019,02,11,10,05,-4.00
2019,02,11,10,06,-4.00
2019,02,11,10,07,-3.90
2019,02,11,10,08,-3.90
2019,02,11,10,09,-3.80
2019,02,11,10,10,-3.80
2019,02,11,10,11,-3.80
2019,02,11,10,12,-3.70
2019,02,11,10,13,-3.70
2019,02,11,10,14,-3.70
2019,02,11,10,15,-3.60
2019,02,11,10,16,-3.60
2019,02,11,10,17,-3.50
2019,02,11,10,18,-3.50
2019,02,11,10,19,-3.40
2019,02,11,10,20,-3.40
2019,02,11,10,21,-3.30
2019,02,11,10,22,-3.30
2019,02,11,10,23,-3.30
2019,02,11,10,24,-3.20
2019,02,11,10,25,-3.20
2019,02,11,10,26,-3.20
2019,02,11,10,27,-3.10
2019,02,11,10,28,-3.10
2019,02,11,10,29,-3.10
2019,02,11,10,30,-3.10
2019,02,11,10,31,-3.00
2019,02,11,10,32,-3.00
2019,02,11,10,33,-2.90
2019,02,11,10,34,-2.90
2019,02,11,10,35,-2.90
2019,02,11,10,36,-2.90
2019,02,11,10,37,-2.80
2019,02,11,10,38,-2.80
2019,02,11,10,39,-2.80
2019,02,11,10,40,-2.80
2019,02,11,10,41,-2.80
2019,02,11,10,42,-2.70
2019,02,11,10,43,-2.70
2019,02,11,10,44,-2.70
2019,02,11,10,45,-2.70
2019,02,11,10,46,-2.70
2019,02,11,10,47,-2.60
2019,02,11,10,48,-2.60
2019,02,11,10,49,-2.60
2019,02,11,10,50,-2.60
2019,02,11,10,51,-2.50
2019,02,11,10,52,-2.50
2019,02,11,10,53,-2.40
2019,02,11,10,54,-2.40
2019,02,11,10,55,-2.30
2019,02,11,10,56,-2.30
2019,02,11,10,57,-2.30
2019,02,11,10,58,-2.30
2019,02,11,10,59,-2.30
2019,02,11,11,00,-2.20
2019,02,11,11,01,-2.20
2019,02,11,11,02,-2.20
2019,02,11,11,03,-2.20
2019,02,11,11,04,-2.20
2019,02,11,11,05,-2.20
2019,02,11,11,06,-2.20
2019,02,11,11,07,-2.20
2019,02,11,11,08,-2.20
2019,02,11,11,09,-2.20
2019,02,11,11,10,-2.10
2019,02,11,11,11,-2.10
2019,02,11,11,12,-2.10
2019,02,11,11,13,-2.10
2019,02,11,11,14,-2.10
2019,02,11,11,15,-2.10
2019,02,11,11,16,-2.10
2019,02,11,11,17,-2.10
2019,02,11,11,18,-2.10
2019,02,11,11,19,-2.10
2019,02,11,11,20,-2.10
2019,02,11,11,21,-2.10
2019,02,11,11,22,-2.00
2019,02,11,11,23,-2.00
2019,02,11,11,24,-2.00
2019,02,11,11,25,-1.90
2019,02,11,11,26,-1.90
2019,02,11,11,27,-1.90
2019,02,11,11,28,-1.90
2019,02,11,11,29,-1.90
2019,02,11,11,30,-1.90
2019,02,11,11,31,-1.90
2019,02,11,11,32,-1.90
2019,02,11,11,33,-2.00
2019,02,11,11,34,-1.90
2019,02,11,11,35,-1.90
2019,02,11,11,36,-2.00
2019,02,11,11,37,-1.90
2019,02,11,11,38,-1.90
2019,02,11,11,39,-1.90
2019,02,11,11,40,-1.90
2019,02,11,11,41,-1.90
2019,02,11,11,42,-1.90
2019,02,11,11,43,-1.90
2019,02,11,11,44,-1.90
2019,02,11,11,45,-1.90
2019,02,11,11,46,-1.90
2019,02,11,11,47,-1.90
2019,02,11,11,48,-1.90
2019,02,11,11,49,-1.80
2019,02,11,11,50,-1.90
2019,02,11,11,51,-1.80
2019,02,11,11,52,-1.80
2019,02,11,11,53,-1.80
2019,02,11,11,54,-1.80
2019,02,11,11,55,-1.80
2019,02,11,11,56,-1.80
2019,02,11,11,57,-1.80
2019,02,11,11,58,-1.70
2019,02,11,11,59,-1.70
2019,02,11,12,00,-1.70
2019,02,11,12,01,-1.70
2019,02,11,12,02,-1.70
2019,02,11,12,03,-1.70
2019,02,11,12,04,-1.70
2019,02,11,12,05,-1.70
2019,02,11,12,06,-1.60
2019,02,11,12,07,-1.60
2019,02,11,12,08,-1.60
2019,02,11,12,09,-1.70
2019,02,11,12,10,-1.70
2019,02,11,12,11,-1.70
2019,02,11,12,12,-1.70
2019,02,11,12,13,-1.70
2019,02,11,12,14,-1.70
2019,02,11,12,15,-1.70
2019,02,11,12,16,-1.70
2019,02,11,12,17,-1.70
2019,02,11,12,18,-1.60
2019,02,11,12,19,-1.60
2019,02,11,12,20,-1.60
2019,02,11,12,21,-1.60
2019,02,11,12,22,-1.60
2019,02,11,12,23,-1.60
2019,02,11,12,24,-1.60
2019,02,11,12,25,-1.60
2019,02,11,12,26,-1.60
2019,02,11,12,27,-1.70
2019,02,11,12,28,-1.70
2019,02,11,12,29,-1.70
2019,02,11,12,30,-1.70
2019,02,11,12,31,-1.70
2019,02,11,12,32,-1.70
2019,02,11,12,33,-1.70
2019,02,11,12,34,-1.70
2019,02,11,12,35,-1.70
2019,02,11,12,36,-1.70
2019,02,11,12,37,-1.70
2019,02,11,12,38,-1.70
2019,02,11,12,39,-1.60
2019,02,11,12,40,-1.60
2019,02,11,12,41,-1.60
2019,02,11,12,42,-1.60
2019,02,11,12,43,-1.60
2019,02,11,12,44,-1.60
2019,02,11,12,45,-1.60
2019,02,11,12,46,-1.60
2019,02,11,12,47,-1.60
2019,02,11,12,48,-1.60
2019,02,11,12,49,-1.50
2019,02,11,12,50,-1.50
2019,02,11,12,51,-1.40
2019,02,11,12,52,-1.40
2019,02,11,12,53,-1.30
2019,02,11,12,54,-1.30
2019,02,11,12,55,-1.30
2019,02,11,12,56,-1.30
2019,02,11,12,57,-1.30
2019,02,11,12,58,-1.30
2019,02,11,12,59,-1.20
2019,02,11,13,00,-1.30
2019,02,11,13,01,-1.30
2019,02,11,13,02,-1.20
2019,02,11,13,03,-1.20
2019,02,11,13,04,-1.30
2019,02,11,13,05,-1.30
2019,02,11,13,06,-1.30
2019,02,11,13,07,-1.30
2019,02,11,13,08,-1.30
2019,02,11,13,09,-1.40
2019,02,11,13,10,-1.40
2019,02,11,13,11,-1.40
2019,02,11,13,12,-1.40
2019,02,11,13,13,-1.40
2019,02,11,13,14,-1.40
2019,02,11,13,15,-1.40
2019,02,11,13,16,-1.40
2019,02,11,13,17,-1.40
2019,02,11,13,18,-1.40
2019,02,11,13,19,-1.40
2019,02,11,13,20,-1.40
2019,02,11,13,21,-1.50
2019,02,11,13,22,-1.50
2019,02,11,13,23,-1.50
2019,02,11,13,24,-1.50
2019,02,11,13,25,-1.50
2019,02,11,13,26,-1.50
2019,02,11,13,27,-1.50
2019,02,11,13,28,-1.40
2019,02,11,13,29,-1.50
2019,02,11,13,30,-1.50
2019,02,11,13,31,-1.50
2019,02,11,13,32,-1.50
2019,02,11,13,33,-1.50
2019,02,11,13,34,-1.50
2019,02,11,13,35,-1.50
2019,02,11,13,36,-1.50
2019,02,11,13,37,-1.50
2019,02,11,13,38,-1.50
2019,02,11,13,39,-1.50
2019,02,11,13,40,-1.50
2019,02,11,13,41,-1.50
2019,02,11,13,42,-1.50
2019,02,11,13,43,-1.50
2019,02,11,13,44,-1.50
2019,02,11,13,45,-1.60
2019,02,11,13,46,-1.60
2019,02,11,13,47,-1.60
2019,02,11,13,48,-1.60
2019,02,11,13,49,-1.60
2019,02,11,13,50,-1.60
2019,02,11,13,51,-1.60
2019,02,11,13,52,-1.60
2019,02,11,13,53,-1.60
2019,02,11,13,54,-1.60
2019,02,11,13,55,-1.60
2019,02,11,13,56,-1.60
2019,02,11,13,57,-1.60
2019,02,11,13,58,-1.60
2019,02,11,13,59,-1.60
2019,02,11,14,00,-1.60
2019,02,11,14,01,-1.60
2019,02,11,14,02,-1.60
2019,02,11,14,03,-1.60
2019,02,11,14,04,-1.60
2019,02,11,14,05,-1.60
2019,02,11,14,06,-1.60
2019,02,11,14,07,-1.60
2019,02,11,14,08,-1.60
2019,02,11,14,09,-1.70
2019,02,11,14,10,-1.60
2019,02,11,14,11,-1.60
2019,02,11,14,12,-1.60
2019,02,11,14,13,-1.60
2019,02,11,14,14,-1.60
2019,02,11,14,15,-1.60
2019,02,11,14,16,-1.60
2019,02,11,14,17,-1.60
2019,02,11,14,18,-1.60
2019,02,11,14,19,-1.50
2019,02,11,14,20,-1.50
2019,02,11,14,21,-1.50
2019,02,11,14,22,-1.50
2019,02,11,14,23,-1.50
2019,02,11,14,24,-1.50
2019,02,11,14,25,-1.40
2019,02,11,14,26,-1.40
2019,02,11,14,27,-1.40
2019,02,11,14,28,-1.30
2019,02,11,14,29,-1.40
2019,02,11,14,30,-1.40
2019,02,11,14,31,-1.40
2019,02,11,14,32,-1.50
2019,02,11,14,33,-1.50
2019,02,11,14,34,-1.50
2019,02,11,14,35,-1.50
2019,02,11,14,36,-1.50
2019,02,11,14,37,-1.60
2019,02,11,14,38,-1.60
2019,02,11,14,39,-1.70
2019,02,11,14,40,-1.70
2019,02,11,14,41,-1.70
2019,02,11,14,42,-1.80
2019,02,11,14,43,-1.80
2019,02,11,14,44,-1.80
2019,02,11,14,45,-1.80
2019,02,11,14,46,-1.80
2019,02,11,14,47,-1.80
2019,02,11,14,48,-1.80
2019,02,11,14,49,-1.80
2019,02,11,14,50,-1.80
2019,02,11,14,51,-1.80
2019,02,11,14,52,-1.80
2019,02,11,14,53,-1.80
2019,02,11,14,54,-1.80
2019,02,11,14,55,-1.80
2019,02,11,14,56,-1.80
2019,02,11,14,57,-1.80
2019,02,11,14,58,-1.80
2019,02,11,14,59,-1.80
2019,02,11,15,00,-1.80
2019,02,11,15,01,-1.80
2019,02,11,15,02,-1.70
2019,02,11,15,03,-1.70
2019,02,11,15,04,-1.70
2019,02,11,15,05,-1.70
2019,02,11,15,06,-1.80
2019,02,11,15,07,-1.80
2019,02,11,15,08,-1.80
2019,02,11,15,09,-1.80
2019,02,11,15,10,-1.80
2019,02,11,15,11,-1.80
2019,02,11,15,12,-1.80
2019,02,11,15,13,-1.80
2019,02,11,15,14,-1.80
2019,02,11,15,15,-1.80
2019,02,11,15,16,-1.80
2019,02,11,15,17,-1.80
2019,02,11,15,18,-1.80
2019,02,11,15,19,-1.80
2019,02,11,15,20,-1.80
2019,02,11,15,21,-1.80
2019,02,11,15,22,-1.80
2019,02,11,15,23,-1.80
2019,02,11,15,24,-1.80
2019,02,11,15,25,-1.80
2019,02,11,15,26,-1.80
2019,02,11,15,27,-1.80
2019,02,11,15,28,-1.80
2019,02,11,15,29,-1.80
2019,02,11,15,30,-1.80
2019,02,11,15,31,-1.80
2019,02,11,15,32,-1.80
2019,02,11,15,33,-1.80
2019,02,11,15,34,-1.80
2019,02,11,15,35,-1.80
2019,02,11,15,36,-1.80
2019,02,11,15,37,-1.80
2019,02,11,15,38,-1.80
2019,02,11,15,39,-1.80
2019,02,11,15,40,-1.80
2019,02,11,15,41,-1.80
2019,02,11,15,42,-1.80
2019,02,11,15,43,-1.80
2019,02,11,15,44,-1.90
2019,02,11,15,45,-1.80
2019,02,11,15,46,-1.90
2019,02,11,15,47,-1.80
2019,02,11,15,48,-1.80
2019,02,11,15,49,-1.80
2019,02,11,15,50,-1.80
2019,02,11,15,51,-1.80
2019,02,11,15,52,-1.80
2019,02,11,15,53,-1.80
2019,02,11,15,54,-1.80
2019,02,11,15,55,-1.80
2019,02,11,15,56,-1.80
2019,02,11,15,57,-1.80
2019,02,11,15,58,-1.80
2019,02,11,15,59,-1.80
2019,02,11,16,00,-1.80
2019,02,11,16,01,-1.80
2019,02,11,16,02,-1.80
2019,02,11,16,03,-1.80
2019,02,11,16,04,-1.80
2019,02,11,16,05,-1.80
2019,02,11,16,06,-1.80
2019,02,11,16,07,-1.80
2019,02,11,16,08,-1.80
2019,02,11,16,09,-1.80
2019,02,11,16,10,-1.80
2019,02,11,16,11,-1.80
2019,02,11,16,12,-1.80
2019,02,11,16,13,-1.80
2019,02,11,16,14,-1.80
2019,02,11,16,15,-1.80
2019,02,11,16,16,-1.80
2019,02,11,16,17,-1.80
2019,02,11,16,18,-1.80
2019,02,11,16,19,-1.80
2019,02,11,16,20,-1.80
2019,02,11,16,21,-1.80
2019,02,11,16,22,-1.80
2019,02,11,16,23,-1.80
2019,02,11,16,24,-1.90
2019,02,11,16,25,-1.90
2019,02,11,16,26,-1.90
2019,02,11,16,27,-1.90
2019,02,11,16,28,-1.90
2019,02,11,16,29,-1.90
2019,02,11,16,30,-1.90
2019,02,11,16,31,-1.90
2019,02,11,16,32,-1.90
2019,02,11,16,33,-1.90
2019,02,11,16,34,-1.90
2019,02,11,16,35,-1.90
2019,02,11,16,36,-1.90
2019,02,11,16,37,-1.90
2019,02,11,16,38,-1.90
2019,02,11,16,39,-1.90
2019,02,11,16,40,-1.90
2019,02,11,16,41,-1.90
2019,02,11,16,42,-1.90
2019,02,11,16,43,-1.90
2019,02,11,16,44,-1.90
2019,02,11,16,45,-2.00
2019,02,11,16,46,-2.00
2019,02,11,16,47,-2.00
2019,02,11,16,48,-2.00
2019,02,11,16,49,-2.00
2019,02,11,16,50,-2.00
2019,02,11,16,51,-2.00
2019,02,11,16,52,-2.00
2019,02,11,16,53,-2.00
2019,02,11,16,54,-2.00
2019,02,11,16,55,-2.00
2019,02,11,16,56,-2.00
2019,02,11,16,57,-2.00
2019,02,11,16,58,-2.00
2019,02,11,16,59,-2.00
2019,02,11,17,00,-2.00
2019,02,11,17,01,-2.00
2019,02,11,17,02,-2.00
2019,02,11,17,03,-2.00
2019,02,11,17,04,-2.00
2019,02,11,17,05,-2.00
2019,02,11,17,06,-2.10
2019,02,11,17,07,-2.10
2019,02,11,17,08,-2.10
2019,02,11,17,09,-2.10
2019,02,11,17,10,-2.10
2019,02,11,17,11,-2.10
2019,02,11,17,12,-2.10
2019,02,11,17,13,-2.10
2019,02,11,17,14,-2.10
2019,02,11,17,15,-2.20
2019,02,11,17,16,-2.20
2019,02,11,17,17,-2.20
2019,02,11,17,18,-2.20
2019,02,11,17,19,-2.20